Flag for Canada Weather past 2 weeks in Owen Sound, Ontario, Canada

Now
50 °F

Passing clouds.


Feels Like: 46 °F
Forecast: 47 / 60 °F
Wind: 12 mph from South

Location: Wiarton

Current Time: Sep 15, 2014 at 5:42:21 AM

Latest Report: Sep 15, 2014 at 5:00 AM


Visibility: 15 mi

Pressure: 30.15 "Hg

Humidity: 82%

Dew point: 45 °F

Location of Owen SoundLocation

Historic Weather in Owen Sound — Graph

°F

Owen Sound temperature yesterday

Maximum temperature yesterday: 57 °F (at 4:00 PM)
Minimum temperature yesterday: 46 °F (at 7:00 AM)
Average temperature yesterday: 51 °F

Past Weeks' High & Low Weather Summary

 TemperatureHumidityPressure
High82 °F (Sep 1, 3:00 PM)100% (Aug 31, 10:00 PM)30.34 "Hg (Aug 31, 10:00 PM)
Low46 °F (Sep 7, 7:00 AM)36% (Sep 8, 2:00 PM)29.45 "Hg (Sep 11, 12:00 AM)
Average62 °F82%30.02 "Hg
* Reported Aug 31 4:00 AM — Sep 15 4:00 AM, Owen Sound, Weather by CustomWeather, © 2014

Note: Actual official high and low records may vary slightly from our data, if they occured in-between our weather recording intervals... More about our weather records

Advertising

Owen Sound weather history for previous 24 hours

 ConditionsComfort  
Time TempWeatherWind HumidityBarometerVisibility
4:00 AM
Sep 15
50 °FPassing clouds.9 mph82%30.15 "Hg15 mi
3:00 AM50 °FPassing clouds.8 mph82%30.16 "Hg15 mi
2:00 AM52 °FPassing clouds.10 mph77%30.16 "Hg15 mi
1:00 AM50 °FPassing clouds.9 mph82%30.16 "Hg15 mi
12:00 AM50 °FPassing clouds.9 mph76%30.17 "Hg15 mi
11:00 PM
Sep 14
52 °FPassing clouds.10 mph72%30.17 "Hg15 mi
10:00 PM52 °FOvercast.9 mph72%30.19 "Hg15 mi
9:00 PM52 °FOvercast.8 mph77%30.20 "Hg15 mi
8:00 PM52 °FOvercast.7 mph77%30.20 "Hg15 mi
7:00 PM54 °FMore clouds than sun.7 mph67%30.20 "Hg15 mi
6:00 PM55 °FPartly sunny.10 mph51%30.21 "Hg15 mi
5:00 PM57 °FBroken clouds.9 mph55%30.22 "Hg15 mi
4:00 PM57 °FBroken clouds.13 mph59%30.23 "Hg15 mi
3:00 PM55 °FPartly sunny.8 mph67%30.25 "Hg15 mi
2:00 PM55 °FPartly sunny.8 mph67%30.27 "Hg15 mi
1:52 PMN/ABroken clouds.6 mphN/AN/A15 mi
1:00 PM52 °FLight rain. Overcast.9 mph77%30.30 "Hg15 mi
12:00 PM54 °FOvercast.8 mph72%30.31 "Hg15 mi
11:00 AM52 °FPartly sunny.8 mph82%30.32 "Hg15 mi
10:00 AM54 °FPartly sunny.7 mph77%30.32 "Hg15 mi
9:00 AM52 °FPassing clouds.3 mph88%30.33 "Hg15 mi
8:00 AM46 °FPassing clouds.3 mph100%30.34 "Hg15 mi
7:00 AM46 °FPassing clouds.3 mph93%30.33 "Hg15 mi
6:00 AM48 °FOvercast.No wind94%30.33 "Hg15 mi
5:00 AM48 °FPassing clouds.5 mph94%30.32 "Hg15 mi
Weather by CustomWeather, © 2014

See weather overviewHow to use our weather pages